Regional Weather Roundup
Issued by NWS

Home | Current Version | Previous Version | Text Only | Print | Product List | Glossary Off
Versions: 1 2 3 4 5 6 7 8 9 10 11 12 13 14 15 16 17 18 19 20 21 22 23 24 25 26 27 28 29 30 31 32 33 34 35 36 37 38 39 40 41 42 43 44 45 46 47 48 49 50

000
ASUS43 KOAX 260310
RWRNE

WEATHER ROUNDUP FOR NEBRASKA
NATIONAL WEATHER SERVICE OMAHA NE
1000 PM CDT SAT MAR 25 2017

NOTES: SATELLITE DATA IS BEING USED TO AUGMENT CLOUD COVER ABOVE
       12000 FEET.
       "FAIR" INDICATES FEW OR NO CLOUDS BELOW 12,000 FEET WITH NO
       SIGNIFICANT WEATHER AND/OR OBSTRUCTIONS TO VISIBILITY.

  * THESE STATIONS DO NOT REPORT WEATHER SUCH AS RAIN...SNOW OR FOG.

NEZ001>004-019>022-054>056-260400-
NEBRASKA PANHANDLE

CITY           SKY/WX    TMP DP  RH WIND       PRES   REMARKS
SCOTTSBLUFF    CLOUDY    53  33  46 E8        29.83R
ALLIANCE       CLOUDY    50  30  46 SE12      29.83R
CHADRON        CLOUDY    56  32  40 S12       29.79R
KIMBALL        CLOUDY    46  35  63 S9        29.87R
SIDNEY         CLOUDY    47  32  56 S10       29.87R
$$

NEZ057>060-069>072-079>082-260400-
SOUTHWEST NEBRASKA

CITY           SKY/WX    TMP DP  RH WIND       PRES   REMARKS
NORTH PLATTE   CLOUDY    44  40  85 SE12      29.90R
IMPERIAL       CLOUDY    46  33  60 S3        29.87S
LEXINGTON      CLOUDY    43  41  91 E8        29.92S FOG
MCCOOK         CLOUDY    42  41  96 E8        29.90S
OGALLALA       CLOUDY    46  32  58 E5        29.87S
$$

NEZ005>010-023>029-035>040-094-260400-
NORTH CENTRAL NEBRASKA

CITY           SKY/WX    TMP DP  RH WIND       PRES   REMARKS
VALENTINE      PTCLDY    44  37  76 E12       29.89R
AINSWORTH      CLOUDY    40  40 100 SE13      29.91S WCI  33
BROKEN BOW     CLOUDY    43  41  93 SE5       29.92S
O`NEILL        CLOUDY    39  39 100 E6        29.96S FOG     WCI  35
ORD            CLOUDY    39  37  92 E5        29.94S FOG
THEDFORD       MOCLDY    43  38  84 SE5       29.90R
$$

NEZ041-046>049-061>064-073>077-083>087-260400-
SOUTH CENTRAL NEBRASKA

CITY           SKY/WX    TMP DP  RH WIND       PRES   REMARKS
GRAND ISLAND   FOG       38  38 100 NE7       29.97R VSB 3/4 WCI  33
AURORA         FOG       38  38 100 NE6       29.96R VSB 1   WCI  34
HASTINGS       FOG       39  38  96 NE6       29.96R VSB 1   WCI  35
HEBRON         CLOUDY    39  38  96 NE6       29.95R FOG
HOLDREGE       CLOUDY    41  40  95 E7        29.93S FOG
KEARNEY *      CLOUDY    39  37  93 E6        29.96S WCI  35
YORK           CLOUDY    39  39 100 NE8       29.95S FOG     WCI  34
$$

NEZ011>018-030>034-042>045-260400-
NORTHEAST NEBRASKA

CITY           SKY/WX    TMP DP  RH WIND       PRES   REMARKS
NORFOLK        CLOUDY    38  37  97 E7        29.94F FOG     WCI  33
ALBION         FOG       40  38  94 E6        29.96S VSB 1
BLAIR          RAIN      40  39  95 N7        29.95R
FREMONT        CLOUDY    40  40 100 NE7       29.96S WCI  35
TEKAMAH        CLOUDY    40  38  93 N8        29.97R WCI  34
WAYNE          CLOUDY    39  38  99 E7        29.96S FOG     WCI  34
$$

NEZ050>053-065>068-078-088>093-260400-
SOUTHEAST NEBRASKA

CITY           SKY/WX    TMP DP  RH WIND       PRES   REMARKS
LINCOLN        CLOUDY    41  39  93 N6        29.96S
OMAHA EPPLEY   CLOUDY    42  37  82 N10       29.95R
BEATRICE       CLOUDY    41  40  98 N8        29.95S FOG
FALLS CITY     CLOUDY    43  41  93 N7        29.92S
NEBRASKA CITY  CLOUDY    41  41 100 N9        29.94S FOG
PLATTSMOUTH    CLOUDY    40  38  92 N6        29.94S FOG
$$

NEZ044-045-051>053-067-260400-
OMAHA AREA

CITY           SKY/WX    TMP DP  RH WIND       PRES   REMARKS
OMAHA EPPLEY   CLOUDY    42  37  82 N10       29.95R
BLAIR          RAIN      40  39  95 N7        29.95R
FREMONT        CLOUDY    40  40 100 NE7       29.96S WCI  35
MILLARD        CLOUDY    43  41  92 NE3       29.95S
OFFUTT AFB     CLOUDY    41  39  93 N6        29.94S
PLATTSMOUTH    CLOUDY    40  38  92 N6        29.94S FOG
WAHOO          DRIZZLE   40  39  95 NE5       29.95S
$$




USA.gov is the U.S. government's official web portal to all federal, state and local government web resources and services.